User: anonymous   Login
Location: Newport
(44.6370°N, 124.0520°W)
Time: 09:17:45
(UTC-08:00)
Language:

Tiangong 1 - Orbit

View from above orbital plane
View from above orbital plane
View from above satellite
View from above satellite

Ground track
Ground track

The orbit data is extracted from the following two-line orbital elements,

1 37820U 11053A   17348.44217434  .00060878  96882-5  15462-3 0  9990
2 37820  42.7539 165.3968 0020210 292.5049 154.1628 15.94896060356588
Epoch (UTC): 14 December 2017 10:36:43
Eccentricity: 0.0020210
inclination: 42.7539°
perigee height: 275 km
apogee height: 302 km
right ascension of ascending node: 165.3968°
argument of perigee: 292.5049°
revolutions per day: 15.94896060
mean anomaly at epoch: 154.1628°
orbit number at epoch: 35658

The dashed part of the orbit path shows where the satellite is in the earth's shadow,  

DLR